Theta_e
311 308 310 309 308 311 313 313 311 304 306 302 299 299 299 300 302 300 301 303 306 306 306 308 309 312 315 316 316 316 317 318 319 321 322 322 321 320
306 307 307 307 307 307 308 309 309 308 304 302 298 299 300 299 300 299 300 300 302 303 305 305 306 307 309 311 313 313 314 315 316 317 318 317 315 313
302 304 304 305 305 304 304 304 302 303 302 297 298 298 295 295 296 297 298 297 298 300 301 303 303 305 306 306 306 307 307 308 309 310 310 310 310 310
302 303 301 303 300 300 300 298 296 293 297 296 296 294 293 292 290 294 296 297 295 296 298 300 300 301 302 302 303 304 304 304 304 305 307 307 306 306
297 297 297 297 294 294 294 296 295 294 291 290 291 293 291 291 291 292 293 289 293 294 295 295 296 297 299 300 299 298 299 300 301 302 302 302 302 303
292 292 292 293 292 293 294 294 294 293 293 292 291 290 290 290 290 285 285 286 285 287 289 292 293 294 294 295 294 294 294 295 296 297 298 298 299 300
293 294 293 294 296 295 293 292 292 290 289 289 289 289 289 288 283 283 281 281 282 281 280 281 282 282 285 292 291 290 291 291 292 293 294 296 296 297
290 290 290 291 293 294 293 293 291 290 288 287 285 285 283 282 281 280 279 276 276 280 279 278 280 279 280 280 289 289 290 290 290 291 291 293 294 294
287 285 285 288 286 284 289 290 290 291 289 285 281 280 280 281 280 279 279 276 278 280 278 276 278 279 280 284 289 289 290 290 292 291 291 291 292 292
284 281 280 281 283 283 283 283 283 283 284 285 282 282 282 282 282 281 280 279 279 279 278 273 277 278 279 280 289 289 289 289 289 291 291 291 292 292
282 284 285 284 288 288 283 281 281 283 287 287 286 286 286 286 284 280 277 274 275 276 278 277 277 278 279 280 281 289 289 290 289 289 290 291 292 292
282 283 289 287 290 288 282 280 278 279 281 280 279 281 281 281 284 279 277 269 271 272 278 275 277 277 273 279 280 281 281 287 289 289 289 290 290 284
280 281 282 289 289 288 286 280 280 281 282 279 277 277 277 278 278 279 279 272 268 269 279 274 268 272 270 273 278 279 279 280 280 281 286 288 289 288
280 280 282 288 288 287 286 286 285 284 278 277 277 277 276 276 277 277 279 277 276 275 277 273 267 268 265 267 273 277 277 278 277 278 277 283 286 288
281 283 286 287 286 284 285 286 286 280 278 276 276 276 277 277 275 274 275 277 275 277 280 271 270 266 268 267 269 273 277 276 278 274 275 275 276 277
286 283 284 285 285 282 282 281 280 279 278 277 277 278 278 274 276 275 272 274 271 274 279 276 272 271 267 272 275 276 277 272 273 274 276 278 278 279
284 281 281 280 280 280 279 279 278 278 277 277 277 277 278 278 277 274 274 271 270 270 273 276 278 276 275 270 273 275 275 274 275 275 273 274 278 279
284 280 279 280 279 280 279 278 278 279 278 277 276 276 276 274 274 273 271 270 269 270 270 272 272 278 278 277 280 276 276 274 274 274 275 271 277 278
282 280 280 280 280 280 279 278 277 278 278 277 276 274 272 270 275 271 270 270 269 269 269 268 265 264 264 271 275 283 275 269 271 275 275 274 275 277
281 281 280 280 281 280 279 279 278 277 277 277 274 272 271 272 271 267 268 266 265 266 268 264 263 263 268 271 269 275 281 269 269 274 274 276 278 282
281 281 282 281 280 281 281 280 278 277 277 275 275 274 272 271 272 271 269 277 275 269 271 270 271 280 276 276 273 274 276 281 280 276 272 274 275 276
282 281 282 282 281 281 281 280 279 279 279 276 276 276 274 273 274 273 273 271 271 272 273 274 277 277 276 275 273 274 275 277 280 282 282 281 276 273
282 282 281 281 281 278 277 277 278 278 278 277 277 276 275 275 276 275 274 274 275 275 276 275 275 275 274 274 275 275 274 274 276 275 277 282 282 283
Wind_Speed
2 2 1 2 2 2 2 3 3 3 4 2 3 2 3 4 6 4 4 6 10 10 10 12 16 18 15 6 8 9 9 7 2 2 10 13 13 12
2 3 3 2 1 1 0 1 2 3 3 1 2 3 3 5 6 3 4 5 7 9 9 11 11 14 16 17 15 14 14 14 15 15 14 14 13 10
2 2 3 2 2 1 2 2 2 2 2 2 2 2 3 4 3 2 3 3 3 5 5 6 9 12 13 13 13 14 13 12 11 10 8 6 6 5
4 3 2 3 3 3 3 4 2 2 1 3 2 2 3 3 1 1 1 0 1 2 2 5 5 6 7 9 12 11 9 8 8 8 8 6 4 1
3 3 2 3 3 2 2 3 3 1 1 3 2 1 3 1 1 0 1 1 1 2 4 5 5 6 7 8 9 9 9 9 8 7 7 6 5 3
4 5 4 4 4 4 3 3 2 1 2 3 2 2 2 2 1 1 2 3 2 3 5 5 6 5 6 6 8 8 8 6 5 3 2 1 1 3
4 4 3 5 8 6 3 2 3 2 2 2 1 2 3 2 1 1 2 1 1 3 2 3 3 3 4 6 5 5 5 4 4 4 4 4 4 5
5 4 4 6 6 8 8 7 4 1 2 2 1 1 2 2 1 1 1 2 1 2 3 3 2 2 2 1 2 3 5 4 4 4 5 6 6 6
5 4 3 3 4 4 6 7 7 8 5 3 3 2 3 3 3 1 2 2 2 3 2 2 2 2 2 3 1 2 2 3 6 4 3 4 4 5
3 4 5 2 3 2 4 5 4 4 4 3 5 3 4 4 3 3 3 1 2 2 2 0 2 1 3 3 3 2 1 3 4 6 3 3 3 4
4 5 4 4 5 5 4 4 3 1 3 6 5 4 4 3 4 3 1 3 2 1 3 1 2 2 2 3 3 4 4 5 3 4 4 4 4 4
4 3 7 7 7 5 4 4 4 4 3 2 2 2 3 1 3 3 3 3 1 2 2 2 2 2 3 2 2 3 3 6 7 5 7 6 6 1
3 3 3 8 7 6 6 3 4 4 3 3 1 1 1 2 2 3 3 4 3 2 2 3 0 2 2 3 3 2 3 3 3 4 8 8 7 6
4 3 4 8 7 6 4 6 5 4 2 1 0 2 2 2 2 2 4 3 3 4 3 4 2 3 2 3 3 3 3 3 0 2 2 6 9 10
3 7 10 9 8 4 5 5 5 3 2 1 2 2 3 2 3 1 1 1 2 2 3 3 4 3 3 3 2 2 5 3 5 1 2 1 3 2
8 4 5 6 6 5 3 2 3 3 3 2 2 2 1 1 2 2 2 1 1 3 3 5 6 5 2 4 4 7 5 3 2 2 3 6 3 4
6 2 2 2 3 3 3 3 3 3 2 3 2 2 3 2 2 2 2 1 2 1 2 3 3 5 5 4 4 6 6 5 5 5 1 5 6 5
5 3 4 4 4 4 4 4 4 5 4 3 2 3 3 2 2 0 1 2 2 2 2 2 1 2 2 5 16 8 6 5 4 4 3 3 8 4
5 3 4 4 4 4 4 4 4 4 4 3 4 4 3 2 4 2 1 1 2 2 3 2 2 3 1 6 3 14 6 3 2 4 4 4 7 9
5 6 6 5 5 5 4 4 4 3 4 4 4 3 4 3 2 2 2 3 2 2 3 2 2 4 4 5 4 5 9 3 3 7 7 5 8 18
6 6 6 6 5 5 5 4 4 4 4 3 4 5 4 4 4 4 4 9 8 3 5 4 6 12 5 3 4 8 5 11 12 7 4 6 9 9
6 7 6 6 6 6 6 5 5 5 4 5 5 4 4 4 5 5 4 4 4 5 7 5 3 2 4 6 9 11 9 8 10 18 22 19 7 6
8 8 7 7 6 5 4 4 5 5 6 5 4 5 5 4 5 5 5 6 7 6 6 6 5 3 6 6 11 9 12 9 7 8 10 18 23 25
Wind_Direction
192 224 80 284 286 275 237 212 197 227 222 148 133 97 111 89 81 63 41 35 31 26 24 23 22 33 38 59 66 62 54 32 352 173 203 212 218 251
196 176 170 179 236 7 29 299 259 199 208 113 75 119 98 88 74 64 55 41 34 18 23 30 33 40 43 46 53 59 61 64 68 77 81 97 104 98
207 193 195 180 173 116 65 57 23 348 169 78 102 118 67 78 66 63 72 46 27 5 4 43 29 44 50 48 46 46 48 52 55 56 65 73 93 84
200 174 166 122 92 47 94 85 93 12 158 134 132 130 81 65 16 74 70 63 68 329 12 49 47 42 61 60 52 48 46 46 49 50 53 65 64 54
73 98 67 106 105 90 84 104 102 75 68 111 118 92 84 75 238 255 175 355 278 337 31 47 62 63 64 68 71 60 50 51 56 62 55 45 33 25
77 75 81 105 113 101 87 99 100 96 73 96 87 102 124 204 189 126 55 28 3 360 11 32 42 46 60 80 77 68 48 34 24 36 68 136 333 306
96 93 91 98 96 107 115 90 118 109 104 95 119 152 157 145 183 253 125 49 342 8 345 345 5 7 16 92 87 48 17 353 342 329 310 295 287 289
123 80 50 60 88 92 96 91 86 119 137 127 191 135 112 109 75 191 108 74 254 320 33 321 29 353 335 235 111 38 353 347 324 310 306 295 287 289
122 128 100 60 70 78 91 75 76 79 104 154 141 205 140 140 167 130 105 146 223 276 74 315 355 347 307 342 155 48 50 2 5 346 294 285 284 275
142 141 130 161 137 152 114 104 92 81 86 88 113 134 111 123 161 154 164 194 302 333 66 70 347 300 322 311 205 142 96 357 8 7 346 294 280 286
168 164 154 167 156 149 136 137 141 127 128 126 131 120 116 142 147 92 39 77 313 342 8 68 340 310 325 316 314 305 319 326 360 360 349 349 349 341
185 189 157 177 170 159 148 147 155 198 172 77 42 31 74 106 99 113 141 128 208 19 296 86 346 23 346 305 326 351 347 353 354 349 343 337 312 296
172 183 198 185 185 184 158 149 179 166 172 143 151 180 191 153 132 124 133 141 153 213 256 102 13 9 114 297 309 342 30 348 334 320 324 326 314 300
183 182 195 193 192 204 189 199 184 138 138 149 219 234 219 196 172 167 161 168 173 179 195 133 176 151 126 322 264 320 317 309 296 300 282 311 309 301
168 185 190 192 196 196 212 221 203 157 174 196 233 247 217 182 124 122 281 215 226 230 193 184 161 177 145 203 248 291 318 312 304 249 296 290 251 256
193 196 189 190 190 199 218 235 160 184 186 203 222 242 126 115 194 170 170 170 105 288 256 199 200 163 204 224 227 269 261 272 298 318 290 295 272 243
165 164 182 182 195 214 221 225 218 211 203 184 199 224 225 194 227 183 202 178 181 237 294 300 235 201 215 172 263 242 249 242 244 267 215 282 278 252
179 182 190 194 202 205 209 215 209 220 204 195 199 207 213 199 215 251 164 176 209 245 251 272 318 305 303 244 222 255 254 251 244 244 234 235 280 264
194 182 191 194 206 213 210 195 203 208 185 194 201 209 205 206 255 195 223 208 261 239 244 222 165 134 231 270 274 214 233 227 261 269 222 219 264 278
190 196 204 201 208 211 203 199 209 190 197 199 196 198 205 200 209 220 211 215 237 256 267 256 202 191 203 244 254 256 249 233 215 277 283 265 261 275
206 208 205 203 206 210 211 204 201 204 197 194 204 204 204 188 224 223 225 259 257 207 255 235 228 235 212 224 245 273 279 249 256 254 256 272 287 281
208 213 210 210 206 205 207 204 204 209 209 207 212 208 208 197 222 224 221 230 236 241 255 247 218 213 233 247 265 277 282 281 264 264 263 256 254 270
212 211 207 202 200 195 187 188 200 208 211 206 201 209 193 206 216 227 224 226 232 233 239 258 249 223 234 237 260 272 272 274 279 280 267 259 262 263